West Paducah, KY

6:08 AM CST on February 25, 2017 (GMT -0600)
Barkley Regional

Weather History for KPAH - February, 2012

Change the Weather History Date:

Sunday, February 26, 2012

  Actual Average Record
Temperature  
Mean Temperature 45 °F 43 °F  
Max Temperature 61 °F 53 °F 73 °F (1996)
Min Temperature 28 °F 33 °F 10 °F (1967)
Degree Days  
Heating Degree Days 20 22  
Month to date heating degree days 600 678  
Since 1 July heating degree days 2772 3251  
Cooling Degree Days 0 0  
Month to date cooling degree days 0 0  
Year to date cooling degree days 0 0  
Moisture  
Dew Point 22 °F    
Average Humidity 42    
Maximum Humidity 63    
Minimum Humidity 20    
Precipitation  
Precipitation 0.00 in 0.14 in 1.50 in (2000)
Month to date precipitation 1.65 3.65  
Year to date precipitation 5.20 7.33  
Snow  
Snow 0.00 in 0.00 in 1.30 in (1989)
Month to date snowfall 0.3 3.0  
Since 1 July snowfall 0.7 8.3  
Snow Depth 0.00 in    
Sea Level Pressure  
Sea Level Pressure 30.24 in    
Wind  
Wind Speed 8 mph (South)    
Max Wind Speed 18 mph    
Max Gust Speed 25 mph    
Visibility 10 miles    
Events      
T = Trace of Precipitation, MM = Missing Value Source: NWS Daily Summary

Daily Weather History Graph

Daily Weather History Graph

Search for Another Location

Airport or City:

Trip Planner

Search our weather history database for the weather conditions in past years. The results will help you decide how hot, cold, wet, or windy it might be!

Date:

Astronomy

Feb. 26, 2012 Rise Set
Actual Time 6:30 AM CST 5:45 PM CST
Civil Twilight 6:04 AM CST 6:12 PM CST
Nautical Twilight 5:34 AM CST 6:42 PM CST
Astronomical Twilight 5:04 AM CST 7:12 PM CST
Moon 8:33 AM CST (2/26) 10:34 PM CST (2/26)
Length of Visible Light 12h 07m
Length of Day
11h 15m
Waxing Crescent, 21% of the Moon is Illuminated
Feb 26
Waxing Crescent
Feb 29
First Quarter
Mar 8
Full
Mar 14
Last Quarter
Mar 22
New

Hourly Weather History & Observations

Time (CST) Temp. Windchill Dew Point Humidity Pressure Visibility Wind Dir Wind Speed Gust Speed Precip Events Conditions
12:53 AM 30.2 °F 23.4 °F 19.4 °F 64% 30.31 in 10.0 mi ESE 6.9 mph - N/A   Clear
1:53 AM 30.0 °F 25.2 °F 19.9 °F 66% 30.32 in 10.0 mi SE 4.6 mph - N/A   Clear
2:53 AM 30.0 °F 23.2 °F 19.9 °F 66% 30.31 in 10.0 mi SE 6.9 mph - N/A   Clear
3:53 AM 30.0 °F 21.1 °F 19.9 °F 66% 30.30 in 10.0 mi ESE 10.4 mph - N/A   Clear
4:53 AM 30.0 °F 25.2 °F 19.9 °F 66% 30.32 in 10.0 mi ESE 4.6 mph - N/A   Clear
5:53 AM 30.9 °F 22.8 °F 19.9 °F 64% 30.30 in 10.0 mi SE 9.2 mph - N/A   Clear
6:53 AM 32.0 °F 25.6 °F 19.9 °F 61% 30.31 in 10.0 mi SSE 6.9 mph - N/A   Clear
7:53 AM 37.4 °F 31.4 °F 23.0 °F 56% 30.31 in 10.0 mi SSE 8.1 mph - N/A   Clear
8:53 AM 44.1 °F 39.0 °F 23.0 °F 43% 30.32 in 10.0 mi South 9.2 mph - N/A   Clear
9:53 AM 50.0 °F - 19.9 °F 31% 30.30 in 10.0 mi South 13.8 mph - N/A   Clear
10:53 AM 53.1 °F - 19.9 °F 27% 30.29 in 10.0 mi SSW 9.2 mph 20.7 mph N/A   Clear
11:53 AM 55.9 °F - 21.9 °F 27% 30.26 in 10.0 mi South 9.2 mph 24.2 mph N/A   Clear
12:53 PM 57.9 °F - 23.0 °F 26% 30.22 in 10.0 mi South 10.4 mph 21.9 mph N/A   Clear
1:53 PM 60.1 °F - 21.9 °F 23% 30.18 in 10.0 mi SSW 13.8 mph 20.7 mph N/A   Clear
2:53 PM 61.0 °F - 19.9 °F 21% 30.15 in 10.0 mi SSW 10.4 mph 17.3 mph N/A   Clear
3:53 PM 60.1 °F - 21.0 °F 22% 30.14 in 10.0 mi SSW 16.1 mph 23.0 mph N/A   Clear
4:53 PM 59.0 °F - 21.9 °F 24% 30.14 in 10.0 mi SSW 5.8 mph - N/A   Clear
5:53 PM 55.9 °F - 23.0 °F 28% 30.15 in 10.0 mi Variable 3.5 mph - N/A   Clear
6:53 PM 53.1 °F - 23.0 °F 31% 30.17 in 10.0 mi SSE 3.5 mph - N/A   Clear
7:53 PM 50.0 °F - 25.0 °F 38% 30.18 in 10.0 mi SSE 4.6 mph - N/A   Clear
8:53 PM 48.0 °F - 27.0 °F 44% 30.18 in 10.0 mi South 6.9 mph - N/A   Clear
9:53 PM 50.0 °F - 26.1 °F 39% 30.19 in 10.0 mi SSW 3.5 mph - N/A   Clear
10:53 PM 46.9 °F - 27.0 °F 46% 30.21 in 10.0 mi SW 3.5 mph - N/A   Clear
11:53 PM 50.0 °F - 28.0 °F 43% 30.22 in 10.0 mi SSW 5.8 mph - N/A   Clear